Weather History for Needles, CA

Change the Weather History Date:

Wednesday, November 21, 2012

  Actual Average Record
Temperature  
Mean Temperature 62 °F -  
Max Temperature 77 °F 70 °F 83 °F (1950)
Min Temperature 48 °F 46 °F 30 °F (1953)
Degree Days  
Heating Degree Days 2    
Growing Degree Days 12 (Base 50)    
Moisture  
Dew Point 33 °F    
Average Humidity 37    
Maximum Humidity 56    
Minimum Humidity 21    
Precipitation  
Precipitation 0.00 in - - ()
Sea Level Pressure  
Sea Level Pressure 29.97 in    
Wind  
Wind Speed 3 mph (WSW)    
Max Wind Speed 13 mph    
Max Gust Speed -    
Visibility 10 miles    
Events      
Averages and records for this station are not official NWS values.
T = Trace of Precipitation, MM = Missing Value Source: NWS Daily Summary

Daily Weather History Graph

Daily Weather History Graph

Search for Another Location

Airport:

Trip Planner

Search our weather history database for the weather conditions in past years. The results will help you decide how hot, cold, wet, or windy it might be!

Date:

Astronomy

Nov. 21, 2012 Rise Set
Actual Time 6:18 AM PST 4:29 PM PST
Civil Twilight 5:51 AM PST 4:57 PM PST
Nautical Twilight 5:20 AM PST 5:27 PM PST
Astronomical Twilight 4:50 AM PST 5:58 PM PST
Moon 12:35 PM PST (11/21) No Moon Set
Length of Visible Light 11h 05m
Length of Day
10h 11m
Waxing Gibbous, 63% of the Moon is Illuminated
Nov 21
Waxing Gibbous
Nov 28
Full
Dec 6
Last Quarter
Dec 13
New
Dec 19
First Quarter

Hourly Weather History & Observations

Time (PST) Temp. Dew Point Humidity Pressure Visibility Wind Dir Wind Speed Gust Speed Precip Events Conditions
12:56 AM 53.1 °F 35.1 °F 50% 29.99 in 10.0 mi Calm Calm - N/A   Clear
1:56 AM 52.0 °F 35.1 °F 53% 29.98 in 10.0 mi Calm Calm - N/A   Clear
2:56 AM 51.1 °F 35.1 °F 54% 29.98 in 10.0 mi West 3.5 mph - N/A   Clear
3:56 AM 51.1 °F 35.1 °F 54% 29.98 in 10.0 mi SW 5.8 mph - N/A   Clear
4:56 AM 50.0 °F 34.0 °F 54% 29.99 in 10.0 mi WSW 3.5 mph - N/A   Clear
5:56 AM 48.9 °F 34.0 °F 56% 30.01 in 10.0 mi Calm Calm - N/A   Clear
6:56 AM 52.0 °F 35.1 °F 53% 30.04 in 10.0 mi South 3.5 mph - N/A   Clear
7:56 AM 57.0 °F 35.1 °F 44% 30.04 in 10.0 mi South 4.6 mph - N/A   Clear
8:56 AM 60.1 °F 34.0 °F 38% 30.03 in 10.0 mi SE 3.5 mph - N/A   Clear
9:56 AM 64.0 °F 35.1 °F 34% 30.03 in 10.0 mi Calm Calm - N/A   Clear
10:56 AM 68.0 °F 34.0 °F 28% 30.00 in 10.0 mi Calm Calm - N/A   Clear
12:56 PM 73.9 °F 36.0 °F 25% 29.94 in 10.0 mi Variable 3.5 mph - N/A   Clear
1:56 PM 75.9 °F 37.0 °F 24% 29.93 in 10.0 mi Calm Calm - N/A   Clear
2:56 PM 77.0 °F 36.0 °F 23% 29.91 in 10.0 mi SE 8.1 mph - N/A   Clear
3:56 PM 77.0 °F 37.0 °F 24% 29.89 in 10.0 mi SE 5.8 mph - N/A   Clear
4:56 PM 70.0 °F 36.0 °F 29% 29.91 in 10.0 mi Calm Calm - N/A   Clear
5:56 PM 66.9 °F 34.0 °F 30% 29.93 in 10.0 mi West 9.2 mph - N/A   Clear
6:56 PM 66.9 °F 26.1 °F 21% 29.94 in 10.0 mi West 12.7 mph - N/A   Clear
7:56 PM 64.9 °F 28.0 °F 25% 29.94 in 10.0 mi West 10.4 mph - N/A   Clear
8:56 PM 64.9 °F 28.9 °F 26% 29.95 in 10.0 mi SSW 4.6 mph - N/A   Clear
9:56 PM 62.1 °F 28.0 °F 28% 29.96 in 10.0 mi NW 5.8 mph - N/A   Clear
10:56 PM 57.9 °F 30.0 °F 35% 29.96 in 10.0 mi NW 4.6 mph - N/A   Clear
11:56 PM 57.0 °F 28.0 °F 33% 29.96 in 10.0 mi West 6.9 mph - N/A   Clear